Flag for China Weather past 2 weeks in Foochow, Fujian, China

Now
66 °F

Fog.


Feels Like: 66 °F
Forecast: 66 / 82 °F
Wind: 3 mph from West

Location: Fuzhou Airport

Current Time: May 6, 2015 at 10:23:48 AM

Latest Report: May 6, 2015 at 9:00 AM


Visibility: 3 mi

Pressure: 29.83 "Hg

Humidity: 78%

Dew point: 59 °F

Location of FoochowLocation

Historic Weather in Foochow — Graph

°F

Foochow temperature yesterday

Maximum temperature yesterday: 64 °F (at 2:00 AM)
Minimum temperature yesterday: 59 °F (at 5:00 AM)
Average temperature yesterday: 62 °F

Past Weeks' High & Low Weather Summary

 TemperatureHumidityPressure
High84 °F (May 2, 12:00 PM)100% (Apr 28, 7:00 AM)30.21 "Hg (Apr 28, 7:00 AM)
Low57 °F (Apr 23, 3:00 AM)29% (Apr 23, 12:00 PM)29.71 "Hg (May 2, 4:00 PM)
Average68 °F73%29.96 "Hg
* Reported Apr 21 9:00 AM — May 6 9:00 AM, Foochow, Weather by CustomWeather, © 2015

Note: Actual official high and low records may vary slightly from our data, if they occured in-between our weather recording intervals... More about our weather records

Advertising

Foochow weather history for previous 24 hours

 ConditionsComfort  
Time TempWeatherWind HumidityBarometerVisibility
9:00 AM
Wed, May 6
66 °FFog.3 mph78%29.83 "Hg3 mi
8:00 AM66 °FFog.1 mph78%29.83 "Hg3 mi
7:00 AM64 °FFog.3 mph83%29.83 "Hg2 mi
6:00 AM64 °FFog.3 mph78%29.80 "Hg3 mi
5:00 AM64 °FMostly cloudy.6 mph78%29.83 "Hg4 mi
4:00 AM64 °FFog.3 mph78%29.83 "Hg3 mi
3:00 AM63 °FOvercast.3 mph83%29.83 "Hg4 mi
2:00 AM63 °FPassing clouds.1 mph83%29.83 "Hg6 mi
1:00 AM63 °FOvercast.1 mph77%29.86 "HgN/A
12:00 AM64 °FOvercast.3 mph73%29.89 "HgN/A
11:00 PM
Tue, May 5
63 °FOvercast.3 mph73%29.89 "HgN/A
10:00 PM63 °FOvercast.3 mph73%29.92 "HgN/A
9:00 PM63 °FOvercast.1 mph77%29.92 "HgN/A
8:00 PM63 °FOvercast.6 mph73%29.89 "HgN/A
7:00 PM63 °FOvercast.3 mph73%29.89 "HgN/A
6:00 PM63 °FOvercast.6 mph68%29.89 "HgN/A
5:00 PM63 °FOvercast.6 mph73%29.89 "HgN/A
4:00 PM64 °FOvercast.8 mph64%29.89 "HgN/A
3:00 PM64 °FOvercast.10 mph64%29.89 "HgN/A
2:00 PM63 °FOvercast.8 mph73%29.92 "HgN/A
1:00 PM63 °FMore clouds than sun.10 mph73%29.95 "HgN/A
12:00 PM63 °FOvercast.10 mph77%29.95 "Hg6 mi
11:00 AM61 °FLight rain. More clouds than sun.8 mph83%29.95 "Hg6 mi
10:00 AM61 °FMore clouds than sun.8 mph83%29.98 "Hg6 mi
Weather by CustomWeather, © 2015

See weather overviewHow to use our weather pages